Lexington Weather

Lexington, Massachusetts, USA

34°F
4/16/2021 10:57am 
  • Lexington Conditions: Snow, Fog, Overcast
  • Temperature: 34.0°F / 1.1°CWarmer 0.2°F than last hour.
  • Dew Point: 32.7°FIncreased 0.2°Fsince last hour.
  • Relative Humidity: 95
  • Wind: Wind from N N 2 mph, 10-min avg: 2 mph, gust: 4 mph
  • Barometer: 29.47 inFalling 0.03  inHg/hr Falling Slowly
  • Visibility: ½ mile
  • Snow Today: 1.3 in
  •   

Regional Weather Roundup
for Boston / Norton, MA

        
000
ASUS41 KBOX 141304
RWRBOX

REGIONAL WEATHER ROUNDUP
NATIONAL WEATHER SERVICE BOSTON/NORTON MA
900 AM EDT WED APR 14 2021

NOTE:  "FAIR" INDICATES FEW OR NO CLOUDS BELOW 12,000 FEET WITH NO 
SIGNIFICANT WEATHER AND/OR OBSTRUCTIONS TO VISIBILITY.

MAZALL-141400-
EASTERN MASSACHUSETTS
  
CITY           SKY/WX    TMP DP  RH WIND       PRES   REMARKS
BOSTON         MOSUNNY   49  39  68 E7        30.11R                  
BEVERLY        NOT AVBL                                               
LAWRENCE       MOSUNNY   49  39  68 CALM      30.11S                  
BEDFORD        MOSUNNY   50  38  63 E8        30.09R                  
BLUE HILL        N/A     49  37  63 VRB7      30.07S                  
NORWOOD        PTSUNNY   53  39  59 CALM      30.09S                  
MARSHFIELD     SUNNY     48  41  76 E7        30.10S                  
PLYMOUTH       SUNNY     49  37  63 NE5       30.09S                  
TAUNTON        CLOUDY    50  38  63 E7        30.08F                  
NEW BEDFORD    PTSUNNY   50  38  63 VRB3      30.08S                  
$$

MAZALL-141400-
CAPE COD AND THE ISLANDS
  
CITY           SKY/WX    TMP DP  RH WIND       PRES   REMARKS
FALMOUTH       NOT AVBL                                               
HYANNIS        CLOUDY    48  37  65 N8        30.08R                  
CHATHAM        CLOUDY    47  36  65 VRB7      30.09S                  
PROVINCETOWN   CLOUDY    46  39  76 MISG        N/A                   
NANTUCKET      CLOUDY    48  38  68 N10       30.09R                  
MARTHAS VNYRD  SUNNY     50  37  61 E8        30.09S                  
$$
 
MAZALL-141400-
CENTRAL AND WESTERN MASSACHUSETTS
  
CITY           SKY/WX    TMP DP  RH WIND       PRES   REMARKS
WORCESTER      CLOUDY    46  39  76 CALM      30.06S                  
FITCHBURG      CLOUDY    51  40  65 SE6       30.08F                  
ORANGE         CLOUDY    49  41  74 E3        30.07S                  
SPRINGFIELD    PTSUNNY   51  40  65 E3        30.05S                  
WESTFIELD      CLOUDY    51  42  71 VRB5      30.05S                  
NORTH ADAMS    MOSUNNY   52  45  77 CALM      30.04F                  
PITTSFIELD     SUNNY     55  42  61 W7        30.03F                  
$$
 
RIZALL-141400-
RHODE ISLAND
  
CITY           SKY/WX    TMP DP  RH WIND       PRES   REMARKS
PROVIDENCE     PTSUNNY   50  44  80 SE6       30.08F                  
NEWPORT        CLOUDY    50  41  71 S6        30.08S                  
BLOCK ISLAND   CLOUDY    45  42  89 S8        30.09S                  
SMITHFIELD     SUNNY     49  43  80 VRB3      30.08S                  
WESTERLY       CLOUDY    46  43  89 S6        30.07F                  
$$
 
CTZALL-141400-
CONNECTICUT
  
CITY           SKY/WX    TMP DP  RH WIND       PRES   REMARKS
BRADLEY INTL   PTSUNNY   51  40  65 CALM      30.05S                  
HARTFORD       CLOUDY    52  41  66 S3        30.05F                  
BRIDGEPORT     SUNNY     50  43  77 SW5       30.06F                  
DANBURY        SUNNY     56  43  61 CALM      30.06F                  
GROTON         CLOUDY    48  44  86 SE7       30.07S                  
NEW HAVEN      SUNNY     52  45  77 SW8       30.06F                  
CHESTER        FAIR      50  43  76 W5        30.05F                  
MERIDEN        CLOUDY    55  40  56 NW5       30.05F                  
WILLIMANTIC    CLOUDY    50  40  68 CALM      30.06S                  
OXFORD         SUNNY     52  44  74 CALM      30.06F                  
$$

MEZ002-015-021-024-NHZ003-005-008-011-012-014-VTZ005-008-141400-
NORTHERN NEW ENGLAND
  
CITY           SKY/WX    TMP DP  RH WIND       PRES   REMARKS
PORTLAND ME    CLOUDY    45  38  76 N5        30.11F                  
BANGOR ME      MOSUNNY   44  28  53 N15       30.11F                  
CONCORD NH     MOSUNNY   48  37  65 E3        30.09S                  
MANCHESTER NH  MOSUNNY   50  38  63 S6        30.08S                  
NASHUA NH      CLOUDY    51  39  63 SE7       30.10S                  
PORTSMOUTH NH  NOT AVBL                                               
JAFFREY NH     CLOUDY    47  40  76 SE3       30.06F                  
KEENE NH       CLOUDY    50  42  74 CALM      30.07S                  
BURLINGTON VT  PTSUNNY   51  35  54 NW3       30.04F                  
MT. WASHINGTON PTSUNNY   34  14  44 NW32        N/A  WCI  20          
$$

NYZ052-076-141400-
EASTERN NEW YORK
  
CITY           SKY/WX    TMP DP  RH WIND       PRES   REMARKS
ALBANY         MOSUNNY   54  42  64 CALM      30.05F                  
NEW YORK CITY  MOSUNNY   55  43  63 NW5       30.06F                  
$$
 
ANZALL-141400-
MARINE OBSERVATIONS
  
STATION/POSITION TIME  TEMP    WIND        PRES    VSBY  WAVE
                       AIR SEA DIR/SP/G                  HT/PER
                 (UTC) (F)     (DEG/KT/KT) (MB)    (MI)  (FT/S)
BOSTON BUOY      1250   44 44   50/  2/  4 1020.0S
BUZZARDS BAY     1200          210/  5/  6 1019.8S
NANTUCKET SOUND  1250      47                N/A           1/ 5
MASS BAY-STELLWA NOT AVBL
ISLE OF SHOALS   1200   44      80/  6/  7 1018.9R
S OF BLOCK IS    1226      44                N/A           3/ 8
$$

......................KEY.........................
  SKY/WX - SKY CONDITION/PRESENT WEATHER
  TMP    - TEMPERATURE IN FAHRENHEIT
  DWPT   - DEWPOINT IN FAHRENHEIT
  RH     - RELATIVE HUMIDITY IN PERCENT
  WIND   - DIRECTION AND SPEED IN MPH
  PRES   - MEAN SEA LEVEL PRESSURE IN INCHES OF HG
  WCI    - WIND CHILL INDEX
  VSB    - VISIBILITY IN MILES
  HX     - HEAT INDEX
  TC     - TEMPERATURE IN CELSIUS
  VRB    - VARIABLE WIND DIRECTION
  N/A    - NOT AVAILABLE
  
      

Other recent Regional Weather Roundups

Fri Apr 16, 10:05am

Fri Apr 16, 9:04am

Fri Apr 16, 8:04am

Fri Apr 16, 7:04am

Fri Apr 16, 6:04am

Fri Apr 16, 5:04am

Fri Apr 16, 4:04am

Fri Apr 16, 3:04am

Fri Apr 16, 2:04am

Fri Apr 16, 1:04am

Fri Apr 16, 12:04am

Thu Apr 15, 11:05pm

Thu Apr 15, 10:04pm

Thu Apr 15, 9:04pm

Thu Apr 15, 8:04pm

Thu Apr 15, 7:05pm

Thu Apr 15, 6:04pm

Thu Apr 15, 5:05pm

Thu Apr 15, 4:04pm

Thu Apr 15, 3:05pm

Thu Apr 15, 2:04pm

Thu Apr 15, 1:05pm

Thu Apr 15, 12:04pm

Thu Apr 15, 11:04am

Thu Apr 15, 10:05am

Thu Apr 15, 9:04am

Thu Apr 15, 8:04am

Thu Apr 15, 7:04am

Thu Apr 15, 6:04am

Thu Apr 15, 5:04am

Thu Apr 15, 4:04am

Thu Apr 15, 3:04am

Thu Apr 15, 2:04am

Thu Apr 15, 1:04am

Thu Apr 15, 12:04am

Wed Apr 14, 11:04pm

Wed Apr 14, 10:04pm

Wed Apr 14, 9:04pm

Wed Apr 14, 8:04pm

Wed Apr 14, 7:04pm

Wed Apr 14, 6:04pm

Wed Apr 14, 5:05pm

Wed Apr 14, 4:04pm

Wed Apr 14, 3:05pm

Wed Apr 14, 2:04pm

Wed Apr 14, 1:05pm

Wed Apr 14, 12:04pm

Wed Apr 14, 11:04am

Wed Apr 14, 10:04am

Wed Apr 14, 8:04am

Wed Apr 14, 7:04am

Wed Apr 14, 6:04am

Wed Apr 14, 5:04am

Wed Apr 14, 4:04am

Wed Apr 14, 3:04am

Wed Apr 14, 2:04am

Wed Apr 14, 1:04am

Wed Apr 14, 12:04am

Tue Apr 13, 11:04pm

Tue Apr 13, 10:05pm

Tue Apr 13, 9:05pm

Tue Apr 13, 8:05pm

Tue Apr 13, 7:04pm

Tue Apr 13, 6:04pm

Tue Apr 13, 5:05pm

Tue Apr 13, 4:04pm

Tue Apr 13, 3:04pm

Tue Apr 13, 2:05pm

Tue Apr 13, 1:04pm

Tue Apr 13, 12:05pm

Tue Apr 13, 11:05am

Tue Apr 13, 10:04am

Tue Apr 13, 9:04am

Tue Apr 13, 8:04am

Tue Apr 13, 7:04am

Tue Apr 13, 6:04am

Tue Apr 13, 5:04am

Tue Apr 13, 4:04am

Tue Apr 13, 3:04am

Tue Apr 13, 2:04am

Tue Apr 13, 1:04am

Tue Apr 13, 12:05am

Mon Apr 12, 11:04pm

Mon Apr 12, 10:04pm

Mon Apr 12, 9:04pm

Mon Apr 12, 8:04pm

Mon Apr 12, 7:05pm

Mon Apr 12, 6:04pm

Mon Apr 12, 5:04pm

Mon Apr 12, 4:04pm

Mon Apr 12, 3:05pm

Mon Apr 12, 2:04pm

Mon Apr 12, 1:05pm

Mon Apr 12, 12:04pm

Mon Apr 12, 11:04am

Mon Apr 12, 10:04am

Mon Apr 12, 9:04am

Mon Apr 12, 8:04am

Mon Apr 12, 7:04am

Mon Apr 12, 6:04am

Mon Apr 12, 5:04am

Mon Apr 12, 4:04am

Mon Apr 12, 3:04am

Mon Apr 12, 2:04am

Mon Apr 12, 1:05am

Mon Apr 12, 12:04am

Sun Apr 11, 11:04pm

Sun Apr 11, 10:04pm

Sun Apr 11, 9:04pm

Sun Apr 11, 8:04pm

Sun Apr 11, 7:04pm

Sun Apr 11, 6:05pm

Sun Apr 11, 5:05pm

Sun Apr 11, 4:04pm

Sun Apr 11, 3:05pm

Sun Apr 11, 2:05pm

Sun Apr 11, 1:05pm

Sun Apr 11, 12:04pm

Sun Apr 11, 11:05am

Sun Apr 11, 10:05am

Sun Apr 11, 9:04am

Sun Apr 11, 8:04am

Sun Apr 11, 7:04am

Sun Apr 11, 6:04am

Sun Apr 11, 5:04am

Sun Apr 11, 4:04am

Sun Apr 11, 3:04am

Sun Apr 11, 2:04am

Sun Apr 11, 1:05am

Sun Apr 11, 12:04am

Sat Apr 10, 11:05pm

Sat Apr 10, 10:04pm

Sat Apr 10, 9:04pm

Sat Apr 10, 8:04pm

Sat Apr 10, 7:05pm

Sat Apr 10, 6:04pm

Sat Apr 10, 5:04pm

Sat Apr 10, 4:04pm

Sat Apr 10, 3:04pm

Sat Apr 10, 2:05pm

Sat Apr 10, 1:04pm

Sat Apr 10, 12:04pm

Sat Apr 10, 11:04am

Sat Apr 10, 10:04am

Sat Apr 10, 9:04am

Sat Apr 10, 8:04am

Sat Apr 10, 7:04am

Sat Apr 10, 6:04am

Sat Apr 10, 5:04am

Sat Apr 10, 4:04am

Sat Apr 10, 3:04am

Sat Apr 10, 2:04am

Sat Apr 10, 1:05am

Sat Apr 10, 12:04am

Fri Apr 9, 11:04pm

Fri Apr 9, 10:05pm

Fri Apr 9, 9:04pm

Fri Apr 9, 8:05pm

Fri Apr 9, 7:05pm

Fri Apr 9, 6:04pm

Fri Apr 9, 5:04pm

Fri Apr 9, 4:05pm

Fri Apr 9, 3:05pm

Fri Apr 9, 2:04pm

Fri Apr 9, 1:04pm

Fri Apr 9, 12:04pm

Fri Apr 9, 11:05am

Meta data:

ID: 23cb216f-c668-4715-8a9c-79b0f170c6b5
Link: https://api.weather.gov/products/23cb216f-c668-4715-8a9c-79b0f170c6b5